Theta_e
316 317 319 324 317 314 317 316 315 316 317 317 317 317 316 318 319 317 322 324 326 320 315 315 316 316 322 328 330 329 329 332 332 332 333 332 332 328 326 325 327 331 334 331 327 325 324 324 326
316 318 322 324 319 315 312 315 317 313 316 317 318 318 318 317 321 322 323 323 324 324 321 317 317 313 317 329 332 331 333 334 333 334 334 330 327 325 325 324 323 323 322 322 323 323 323 323 322
317 319 322 315 313 314 315 314 314 315 316 317 316 317 318 319 320 321 322 321 320 322 323 318 317 313 316 333 330 330 333 333 334 331 324 322 321 318 317 319 321 322 322 322 322 320 317 318 318
317 320 318 318 319 317 315 316 313 315 316 316 316 314 317 319 319 319 320 322 321 321 321 318 314 313 314 322 328 329 331 331 318 316 316 315 315 313 313 313 314 314 315 315 314 314 313 312 312
318 319 312 315 314 314 312 315 314 314 315 315 315 314 315 316 317 318 318 319 320 319 320 318 315 314 314 316 317 319 321 323 321 316 313 312 311 310 309 308 308 308 308 307 306 305 305 304 304
317 316 315 313 313 313 313 316 314 313 314 314 314 314 316 316 316 316 317 317 317 318 319 320 316 314 314 314 314 314 315 315 314 313 310 308 307 305 304 304 304 304 304 303 303 303 303 303 303
317 313 315 313 313 314 315 314 313 314 314 315 316 314 316 317 317 316 317 317 317 316 318 320 318 315 314 314 313 313 312 312 311 309 307 305 304 304 304 304 303 303 303 303 302 303 303 304 304
319 313 315 313 314 315 315 314 315 314 314 316 315 313 315 317 317 317 316 316 317 316 316 318 320 315 314 313 312 312 310 309 308 307 306 304 305 305 305 304 303 303 303 304 304 305 305 305 305
318 311 310 313 313 315 315 314 316 316 315 314 316 317 317 317 317 317 316 316 316 316 315 315 318 317 314 313 312 311 309 308 307 307 304 304 305 305 304 303 303 303 304 304 304 304 305 305 305
316 309 310 310 311 314 316 315 317 315 316 314 316 317 317 317 316 316 316 316 316 316 316 315 316 317 315 314 313 311 309 308 308 307 304 304 305 306 305 304 303 303 304 304 304 304 304 304 304
315 314 311 314 315 317 315 314 317 313 312 316 316 317 317 316 316 316 316 316 316 316 316 316 315 316 317 315 313 312 309 308 308 307 304 304 305 307 306 304 303 303 303 303 303 304 304 304 304
316 315 315 315 317 317 315 317 314 314 318 317 317 317 316 316 316 316 316 316 316 316 316 316 316 315 316 316 314 313 311 308 308 307 304 304 305 306 306 304 303 303 303 303 303 304 304 303 303
314 314 317 318 317 317 318 315 314 314 317 317 317 316 316 316 316 316 315 315 315 315 315 315 316 315 315 316 315 314 312 309 307 307 305 303 304 305 305 305 304 304 303 303 304 304 305 304 304
314 314 314 314 315 315 314 315 314 315 316 316 316 316 316 316 317 316 316 317 316 315 315 315 315 315 315 315 315 315 314 311 308 307 307 304 303 304 305 305 304 303 303 303 304 304 304 303 303
314 312 309 309 312 310 313 312 310 315 315 315 315 315 317 317 316 317 317 317 317 317 315 315 315 315 315 314 314 315 315 312 309 307 307 306 303 303 304 303 303 302 302 302 303 303 303 303 303
311 309 310 310 309 311 312 310 311 314 314 314 315 316 316 316 316 316 316 316 316 317 317 316 315 315 314 314 314 313 314 314 311 307 306 306 303 302 303 303 301 301 301 301 302 302 302 302 302
307 309 307 308 309 309 308 309 309 314 313 313 315 315 315 315 315 315 315 315 315 315 316 317 316 315 315 314 313 313 312 312 311 308 306 305 304 303 302 302 301 300 300 300 301 301 302 302 302
308 307 306 307 309 307 309 309 309 313 312 310 311 313 313 314 315 316 315 315 314 314 314 315 316 315 315 314 313 312 311 310 310 307 305 304 304 303 302 301 300 299 298 299 300 301 301 301 301
307 307 306 306 307 308 309 310 309 309 310 310 311 311 312 312 314 315 315 314 314 314 314 314 314 315 315 315 314 312 312 310 309 308 306 304 304 303 302 301 299 299 298 298 299 300 300 300 300
308 308 309 309 308 307 308 309 309 309 310 310 311 311 311 312 314 315 314 314 314 314 314 314 315 315 315 315 314 313 312 311 309 308 306 304 303 302 302 300 299 298 298 297 298 299 300 300 299
307 308 309 309 308 306 305 309 307 307 308 309 311 312 311 312 314 315 313 313 313 314 314 314 314 314 314 313 312 311 310 309 308 306 305 304 303 302 302 300 299 298 297 297 298 298 299 299 299
310 307 308 308 308 310 307 311 308 308 308 307 309 310 314 315 312 314 314 314 314 314 315 314 313 313 313 313 312 312 312 311 311 310 308 306 304 303 302 300 298 297 297 296 297 297 298 298 298
309 308 307 307 307 307 308 307 311 307 309 308 307 312 311 314 314 314 314 314 315 314 315 314 313 312 311 312 312 312 311 310 310 309 308 306 304 303 301 300 298 297 296 296 296 297 297 297 297
307 308 306 304 306 309 308 308 313 308 309 310 309 313 313 314 313 313 314 314 313 313 314 315 313 313 312 310 310 310 310 310 310 309 308 306 304 303 302 300 299 298 297 295 295 296 296 296 296
308 307 308 308 307 311 306 307 312 310 310 308 307 311 312 313 313 312 313 313 312 312 312 312 312 312 312 311 310 309 309 309 309 309 309 308 306 304 303 302 301 299 297 295 295 295 296 296 296
306 308 309 312 309 314 303 309 315 311 309 311 309 310 310 311 312 313 312 312 312 311 311 311 312 312 311 311 310 310 309 308 307 308 308 307 307 306 305 302 300 299 297 296 295 294 295 295 295
306 308 308 310 311 310 312 310 310 311 308 307 308 309 310 311 312 312 312 313 311 312 311 312 311 311 311 311 309 310 311 309 308 308 307 306 306 305 305 303 302 300 298 296 295 294 294 294 294
306 306 309 307 312 314 311 311 313 312 312 309 306 306 311 311 308 307 309 311 309 307 307 307 308 308 309 309 309 309 309 309 309 307 307 307 306 305 304 303 302 300 298 296 295 294 293 294 294
310 307 306 307 310 315 316 314 310 312 311 305 305 309 305 302 304 305 305 306 306 306 306 306 306 305 305 305 304 305 306 307 307 307 307 307 306 306 305 303 302 301 299 297 295 294 293 293 293
306 311 309 312 312 309 311 313 309 308 308 304 299 298 300 300 300 301 302 301 303 304 305 304 304 305 306 306 306 306 305 305 306 305 306 307 307 306 305 304 302 301 300 298 296 295 293 293 293
Wind_Speed
5 4 2 2 4 5 4 6 2 3 2 2 7 5 7 4 6 5 2 6 10 17 19 20 20 20 21 20 17 16 15 13 12 12 12 10 11 12 13 11 10 9 7 8 6 5 5 5 5
5 3 1 2 4 2 5 4 6 6 2 3 5 4 2 7 13 7 5 7 10 14 17 18 19 19 18 18 18 16 15 16 16 15 15 13 12 11 10 10 11 11 9 8 6 5 6 6 7
5 3 1 4 3 4 5 5 5 2 5 4 2 5 3 4 7 9 6 11 12 13 17 18 19 19 18 17 18 17 18 18 17 17 14 13 13 12 10 10 10 11 11 10 9 9 10 10 11
3 2 3 3 6 7 7 5 4 2 3 8 4 6 6 11 5 6 9 11 13 13 16 19 20 21 20 21 18 20 21 20 16 12 12 13 13 12 10 10 11 11 11 10 9 10 10 11 11
2 1 2 2 5 6 6 11 8 3 3 3 5 5 6 10 13 13 7 11 14 14 17 20 22 22 22 21 21 21 22 21 20 15 14 13 11 10 10 11 10 10 10 9 8 8 8 7 7
1 2 3 3 5 6 7 9 3 4 5 3 4 8 8 11 11 13 11 11 13 15 17 20 23 24 23 22 22 21 21 21 19 17 14 12 11 10 10 9 9 8 8 7 5 4 3 3 3
3 3 3 3 5 7 4 1 3 3 3 7 5 2 6 9 8 10 11 13 15 16 18 20 23 24 24 24 23 22 23 21 20 18 15 12 10 9 8 7 6 6 5 5 4 3 2 2 3
2 4 1 4 2 6 3 2 5 5 5 7 5 6 6 5 6 10 13 16 18 19 20 22 24 25 26 26 24 24 23 23 21 19 16 14 12 10 9 9 8 7 6 5 3 3 3 4 5
3 3 3 5 5 5 2 1 4 5 9 8 10 20 22 22 19 16 18 20 22 23 22 23 25 27 28 27 26 25 25 24 22 21 19 16 14 12 11 10 8 8 7 5 4 4 5 6 7
4 4 7 6 5 5 5 5 15 5 11 12 21 26 27 27 27 25 25 25 26 26 25 25 26 29 31 31 29 28 28 26 25 22 20 18 16 14 13 12 11 9 8 6 6 6 6 7 7
6 6 5 8 17 13 7 7 11 4 8 27 22 24 20 23 27 30 30 30 30 27 29 28 29 30 33 33 33 32 31 29 27 25 24 22 20 18 16 14 12 11 9 8 7 7 7 8 9
3 13 13 6 8 6 6 14 8 12 35 35 34 32 34 32 32 33 34 33 32 32 31 32 32 33 34 35 36 35 34 33 30 28 28 27 24 21 19 17 15 12 10 9 9 8 8 10 11
5 6 15 24 21 21 22 27 13 21 46 42 40 35 34 31 31 30 30 32 34 35 34 34 34 35 37 38 38 38 37 36 33 32 31 29 27 24 22 19 17 14 12 11 10 10 11 13 14
3 8 12 14 17 19 11 28 4 31 36 37 35 35 31 28 29 28 28 31 34 34 35 34 35 36 37 39 40 40 40 39 37 35 33 32 29 27 25 23 20 18 16 13 12 11 10 11 13
6 7 9 7 12 7 11 10 11 36 31 33 38 33 30 30 29 31 31 33 33 34 34 35 35 37 38 40 41 42 42 41 40 39 37 35 33 30 28 26 24 21 19 16 13 12 11 12 13
3 1 5 2 5 4 11 10 22 26 21 27 27 26 33 38 40 43 41 42 40 38 36 35 36 38 39 41 42 43 42 42 42 41 40 38 35 33 31 29 26 23 20 18 15 13 12 12 12
3 6 7 10 12 6 8 10 14 23 16 20 31 46 47 51 50 50 47 45 45 44 42 39 37 37 38 40 43 44 44 44 44 43 43 40 38 36 34 31 29 26 24 22 19 16 14 12 13
9 6 6 7 7 6 6 17 14 36 35 33 38 47 51 53 55 50 48 45 41 37 37 39 38 38 36 39 43 45 45 46 46 45 45 42 40 38 37 34 32 29 28 25 21 19 16 13 13
3 6 12 8 8 4 20 23 18 24 27 37 38 36 46 47 50 47 42 39 37 33 31 32 35 37 40 41 44 47 47 47 47 47 46 44 43 41 40 38 35 33 30 26 24 23 19 15 14
6 11 18 14 15 5 14 21 18 19 24 33 38 41 34 43 46 46 43 34 30 28 25 24 27 34 38 42 44 46 44 46 47 47 47 47 46 44 42 40 38 35 32 31 29 26 22 19 15
4 7 17 14 6 5 10 13 7 9 13 27 37 43 35 39 39 34 37 34 27 23 22 22 23 27 35 40 43 45 44 46 48 50 49 49 47 45 45 41 39 36 34 33 30 28 25 22 16
15 11 13 10 6 7 5 15 6 8 10 9 25 25 27 23 26 32 35 31 31 22 16 19 25 31 33 36 39 44 47 48 48 48 47 48 48 48 46 43 40 38 36 34 32 30 27 24 20
10 5 7 3 4 5 1 3 1 4 6 11 9 10 17 21 22 27 29 32 24 21 19 19 21 27 32 35 36 39 43 45 45 44 45 47 48 48 47 44 42 40 38 36 35 34 31 27 25
2 2 4 4 2 5 9 8 20 4 4 2 9 31 21 19 28 29 31 32 23 15 17 20 20 22 27 31 33 35 39 42 42 42 41 45 47 47 46 44 43 42 41 40 38 35 32 29 26
3 4 3 3 1 9 3 3 16 10 16 8 10 17 7 18 29 38 37 35 27 18 15 16 17 18 20 24 28 31 34 36 38 38 40 41 44 48 48 47 47 46 43 41 39 37 35 33 29
8 9 6 7 5 12 3 7 18 7 10 27 17 14 7 20 28 36 37 33 27 20 16 14 13 14 16 18 23 26 30 36 37 38 39 40 39 41 44 47 46 44 42 41 41 39 37 34 32
4 6 3 3 5 3 12 14 15 18 7 4 3 8 18 25 23 30 29 31 21 21 15 13 12 13 15 18 22 22 25 32 37 36 37 38 37 38 39 41 44 45 44 43 43 42 40 38 35
7 2 2 1 4 8 7 14 12 22 26 7 9 17 36 38 32 27 25 20 19 23 25 23 20 21 22 21 21 25 28 30 33 36 38 37 37 39 39 38 40 44 45 45 45 45 42 41 38
2 4 4 2 5 12 18 13 10 22 21 9 11 28 28 29 30 29 26 21 21 20 22 22 22 24 29 32 31 31 32 35 36 39 39 40 41 41 41 40 39 40 44 47 47 46 44 43 41
5 12 7 10 10 10 11 11 12 13 16 25 26 28 31 30 33 31 28 28 28 27 27 30 28 23 20 23 26 29 33 36 40 44 44 44 45 44 42 41 41 41 42 46 49 48 47 47 45
Wind_Direction
225 237 271 306 46 59 271 264 271 261 250 198 142 164 197 193 171 211 274 186 187 193 195 196 195 199 200 202 207 210 209 203 205 200 206 206 211 212 214 209 201 187 190 207 223 227 239 261 265
230 240 262 96 93 52 267 250 240 234 259 204 189 199 232 251 231 266 215 197 184 191 199 199 197 199 197 199 203 201 195 198 205 196 197 203 212 222 223 217 216 218 235 252 265 264 266 264 263
226 220 221 97 118 192 225 222 244 268 246 201 246 243 250 235 238 229 227 203 196 196 202 202 200 202 200 196 198 194 197 200 201 208 225 233 238 247 242 235 231 234 241 246 252 263 271 273 275
205 174 55 104 225 249 219 251 236 289 241 225 238 277 252 245 260 234 232 218 213 209 210 206 202 205 206 205 202 199 203 210 232 237 237 237 236 240 239 235 235 239 242 250 256 261 265 269 274
202 40 53 307 259 265 254 265 264 220 252 209 202 261 253 263 251 252 248 231 225 222 216 212 209 210 212 213 215 215 218 226 238 242 234 231 229 225 223 224 230 238 244 249 252 255 257 265 271
95 68 35 261 264 273 278 264 243 219 242 245 225 255 257 269 269 253 244 228 228 230 225 220 215 216 217 219 220 223 226 232 239 240 233 226 222 221 222 224 227 229 230 229 229 226 234 253 268
116 89 230 254 265 304 260 313 213 231 246 261 234 245 275 292 274 258 241 231 227 228 228 227 224 221 220 222 226 227 230 228 228 229 229 227 220 219 223 226 226 225 218 208 202 208 228 274 309
154 99 270 249 263 273 315 245 281 229 265 250 220 242 267 290 296 251 237 231 230 231 231 229 226 225 223 225 225 226 227 224 224 225 223 216 215 222 222 223 219 221 225 230 247 288 313 324 330
163 64 243 252 184 250 255 266 276 264 267 245 228 249 274 281 282 267 240 231 230 231 230 229 227 226 226 226 227 227 226 224 224 223 218 215 219 223 217 218 216 222 230 244 267 286 307 320 327
152 146 228 215 209 245 289 250 288 266 269 263 260 267 275 278 275 271 263 257 245 240 240 233 228 226 226 227 228 228 228 226 227 225 220 217 220 219 217 217 217 224 236 250 266 285 304 311 324
184 210 216 244 246 268 282 280 273 197 276 267 261 293 290 280 280 272 268 264 266 265 246 243 235 229 227 228 229 229 229 229 229 225 222 221 224 225 220 220 220 227 240 256 270 281 291 305 319
231 242 240 255 256 280 270 291 265 221 270 287 287 291 286 281 279 278 273 270 270 264 258 246 240 236 232 229 230 232 231 230 229 227 224 223 225 224 222 221 225 233 241 251 264 279 297 312 322
220 243 253 263 272 274 281 272 254 260 283 289 289 290 288 284 283 282 282 275 265 263 259 254 245 242 237 233 232 231 232 232 231 228 228 226 225 226 225 226 229 234 244 255 265 283 300 310 319
280 265 273 284 274 265 228 270 210 268 280 286 287 292 291 285 289 286 279 281 274 270 264 255 250 246 241 239 238 235 234 232 231 231 231 229 227 227 228 228 229 230 234 243 257 272 288 303 315
286 312 312 224 262 231 222 295 231 274 285 286 286 285 289 289 291 288 290 287 286 282 272 264 254 247 244 242 240 237 237 234 233 233 232 230 228 228 229 229 228 228 230 237 244 260 280 298 311
304 179 302 5 131 261 161 257 273 289 275 278 284 286 289 287 286 287 283 282 282 280 277 270 258 251 245 244 243 240 238 236 234 233 232 230 228 228 229 230 228 229 232 236 240 251 268 287 305
332 250 224 300 222 197 186 254 254 282 296 267 275 284 288 288 287 283 282 282 282 282 277 270 263 254 246 243 242 242 240 237 235 232 231 230 229 230 231 231 230 230 232 232 236 242 255 277 298
234 236 252 244 277 182 229 252 273 279 288 275 275 281 283 285 286 291 293 293 291 287 278 267 261 254 246 242 241 239 238 236 234 232 231 230 230 230 231 230 229 230 229 231 236 241 252 267 287
183 238 252 264 264 299 279 276 270 271 272 278 280 273 278 281 296 298 298 298 297 293 284 269 258 250 242 238 237 235 235 235 233 232 231 230 230 230 231 230 229 229 230 234 234 238 244 257 274
249 269 272 276 263 249 272 273 278 264 255 258 270 279 277 289 298 302 305 307 309 306 294 272 258 252 249 244 239 236 235 235 234 232 229 228 228 229 230 230 230 230 228 228 231 235 240 248 256
209 235 264 266 303 253 298 280 233 274 253 259 263 270 280 287 293 313 316 318 317 316 302 282 264 254 249 245 238 235 233 233 231 228 227 227 227 228 230 229 230 230 230 231 234 235 237 241 243
264 226 256 271 347 279 2 297 174 233 263 276 271 284 291 311 321 330 327 330 324 318 307 284 262 252 246 242 239 236 237 234 235 235 232 229 227 227 228 228 228 229 230 230 232 232 233 240 243
240 176 237 191 203 318 274 281 99 101 229 272 295 288 331 356 354 343 343 332 319 304 307 286 265 254 249 243 239 236 236 237 239 238 233 231 229 228 228 227 226 227 229 230 231 231 233 236 243
108 98 57 46 96 281 188 179 295 157 243 274 318 312 332 356 3 2 352 344 333 294 292 285 266 254 249 247 244 241 238 236 236 237 236 234 231 230 228 228 228 229 229 228 229 230 232 236 239
139 79 313 327 40 232 90 154 254 292 281 267 279 288 298 3 9 10 1 350 345 326 300 289 268 261 258 251 249 246 244 241 240 239 239 235 232 231 230 228 227 227 227 228 228 229 232 234 236
184 171 176 221 253 283 98 243 266 250 282 283 282 277 312 360 5 2 4 359 356 350 345 326 302 283 266 260 256 251 247 243 241 242 241 240 238 236 235 232 231 231 230 229 229 229 231 233 234
179 179 237 313 264 254 266 274 298 291 304 0 327 322 345 341 341 349 347 346 9 13 7 354 333 321 308 287 268 256 255 252 247 245 246 246 246 241 239 236 235 234 230 229 229 229 230 231 233
183 211 233 349 253 250 228 256 269 290 289 308 323 347 342 339 349 359 354 348 344 3 358 352 344 333 318 301 288 274 264 259 256 251 248 248 246 244 241 237 234 234 234 231 229 229 228 229 232
196 234 222 237 207 260 267 259 256 272 296 15 353 349 9 11 10 10 12 9 3 359 356 345 338 331 326 316 302 290 279 273 267 260 254 252 250 247 244 239 235 233 233 232 231 230 229 230 232
197 253 241 241 252 246 269 265 297 325 339 23 40 19 11 10 6 5 5 5 7 7 2 5 2 354 328 304 300 299 292 284 278 269 262 256 252 250 247 246 241 235 232 232 232 232 230 230 230